When you browse on this site, cookies collect data to enhance your experience and personalize the content and advertising you see.
Visit our Privacy Policy to learn more. By continuing to use the site, you agree to this use of cookies and data.
  • In Switzerland
  • List of Countries
  • For 7 days
  • Water Temperature
  • Weather Map
  • Weather Widgets
  • user-avatar
    Login

    Hourly Weather Bordeaux

    Today, 4 June, Thursday

    Time Temperature Precipitation Wind Pressure Humidity
    00:00 +16°C° 0 mm 2 mps 752 mmHg 88%
    01:00 +15°C° 0.1 mm 2 mps 751 mmHg 87%
    02:00 +15°C° 0.1 mm 2 mps 751 mmHg 87%
    03:00 +15°C° 0.1 mm 2 mps 750 mmHg 87%
    04:00 +16°C° 0.2 mm 3 mps 750 mmHg 86%
    05:00 +16°C° 0.2 mm 3 mps 750 mmHg 86%
    06:00 +16°C° 0.2 mm 3 mps 750 mmHg 85%
    07:00 +17°C° 0.4 mm 4 mps 750 mmHg 80%
    08:00 +18°C° 0.4 mm 4 mps 750 mmHg 75%
    09:00 +19°C° 0.4 mm 5 mps 750 mmHg 70%
    10:00 +20°C° 0.8 mm 5 mps 750 mmHg 66%
    11:00 +21°C° 0.8 mm 5 mps 750 mmHg 63%
    12:00 +22°C° 0.8 mm 5 mps 750 mmHg 60%
    13:00 +22°C° 0.5 mm 5 mps 751 mmHg 58%
    14:00 +22°C° 0.5 mm 5 mps 751 mmHg 56%
    15:00 +22°C° 0.5 mm 6 mps 751 mmHg 54%
    16:00 +21°C° 0.1 mm 6 mps 751 mmHg 58%
    17:00 +20°C° 0.1 mm 6 mps 752 mmHg 62%
    18:00 +19°C° 0.1 mm 6 mps 752 mmHg 67%
    19:00 +17°C° 0.1 mm 5 mps 753 mmHg 71%
    20:00 +17°C° 0.1 mm 4 mps 754 mmHg 76%
    21:00 +16°C° 0.1 mm 3 mps 755 mmHg 81%
    22:00 +14°C° 0.1 mm 3 mps 755 mmHg 82%
    23:00 +14°C° 0.1 mm 3 mps 755 mmHg 83%

    Tomorrow, 5 June, Friday

    Time Temperature Precipitation Wind Pressure Humidity
    00:00 +14°C° 0.1 mm 3 mps 756 mmHg 84%
    01:00 +13°C° 0.1 mm 3 mps 756 mmHg 83%
    02:00 +14°C° 0.1 mm 2 mps 756 mmHg 83%
    03:00 +14°C° 0.1 mm 2 mps 756 mmHg 83%
    04:00 +13°C° 0 mm 3 mps 756 mmHg 82%
    05:00 +14°C° 0 mm 3 mps 756 mmHg 81%
    06:00 +14°C° 0 mm 3 mps 756 mmHg 80%
    07:00 +15°C° 0.1 mm 4 mps 756 mmHg 78%
    08:00 +15°C° 0.1 mm 4 mps 756 mmHg 76%
    09:00 +16°C° 0.1 mm 5 mps 756 mmHg 74%
    10:00 +16°C° 0.1 mm 5 mps 756 mmHg 75%
    11:00 +17°C° 0.1 mm 5 mps 756 mmHg 76%
    12:00 +17°C° 0.1 mm 6 mps 756 mmHg 77%
    13:00 +17°C° 0.2 mm 5 mps 756 mmHg 78%
    14:00 +17°C° 0.2 mm 5 mps 756 mmHg 78%
    15:00 +19°C° 0.2 mm 5 mps 756 mmHg 79%
    16:00 +17°C° 0.2 mm 5 mps 756 mmHg 79%
    17:00 +17°C° 0.2 mm 5 mps 756 mmHg 80%
    18:00 +18°C° 0.2 mm 4 mps 756 mmHg 80%
    19:00 +18°C° 0.1 mm 4 mps 756 mmHg 82%
    20:00 +17°C° 0.1 mm 4 mps 756 mmHg 83%
    21:00 +17°C° 0.1 mm 4 mps 757 mmHg 85%
    22:00 +17°C° 0.1 mm 4 mps 756 mmHg 85%
    23:00 +17°C° 0.1 mm 4 mps 756 mmHg 85%

    Day after tomorrow, 6 June, Saturday

    Time Temperature Precipitation Wind Pressure Humidity
    00:00 +17°C° 0.1 mm 4 mps 756 mmHg 85%
    01:00 +17°C° 0.1 mm 4 mps 756 mmHg 86%
    02:00 +17°C° 0.1 mm 3 mps 756 mmHg 86%
    03:00 +17°C° 0.1 mm 3 mps 756 mmHg 86%
    04:00 +17°C° 0.1 mm 3 mps 756 mmHg 86%
    05:00 +17°C° 0.1 mm 4 mps 755 mmHg 86%
    06:00 +17°C° 0.1 mm 4 mps 755 mmHg 85%
    07:00 +18°C° 0.2 mm 4 mps 756 mmHg 84%
    08:00 +18°C° 0.2 mm 4 mps 756 mmHg 83%
    09:00 +19°C° 0.2 mm 4 mps 756 mmHg 81%
    10:00 +19°C° 0.3 mm 4 mps 756 mmHg 80%
    11:00 +19°C° 0.3 mm 4 mps 756 mmHg 78%
    12:00 +19°C° 0.3 mm 4 mps 756 mmHg 77%
    13:00 +20°C° 0.1 mm 4 mps 756 mmHg 73%
    14:00 +20°C° 0.1 mm 4 mps 756 mmHg 69%
    15:00 +20°C° 0.1 mm 4 mps 756 mmHg 66%
    16:00 +19°C° 0 mm 4 mps 756 mmHg 67%
    17:00 +18°C° 0 mm 4 mps 756 mmHg 68%
    18:00 +17°C° 0 mm 4 mps 756 mmHg 70%
    19:00 +16°C° 0 mm 3 mps 757 mmHg 71%
    20:00 +15°C° 0 mm 2 mps 757 mmHg 73%
    21:00 +14°C° 0 mm 2 mps 758 mmHg 74%
    22:00 +14°C° 0 mm 2 mps 758 mmHg 72%
    23:00 +13°C° 0 mm 1 mps 758 mmHg 71%

    7 June, Sunday

    Time Temperature Precipitation Wind Pressure Humidity
    00:00 +13°C° 0 mm 1 mps 758 mmHg 69%
    01:00 +13°C° 0 mm 1 mps 758 mmHg 68%
    02:00 +13°C° 0 mm 1 mps 758 mmHg 68%
    03:00 +14°C° 0 mm 1 mps 758 mmHg 67%
    04:00 +14°C° 0 mm 1 mps 758 mmHg 68%
    05:00 +14°C° 0 mm 1 mps 758 mmHg 68%
    06:00 +14°C° 0 mm 1 mps 758 mmHg 68%
    07:00 +15°C° 0 mm 1 mps 759 mmHg 62%
    08:00 +18°C° 0 mm 1 mps 759 mmHg 56%
    09:00 +19°C° 0 mm 1 mps 759 mmHg 51%
    10:00 +18°C° 0 mm 2 mps 759 mmHg 49%
    11:00 +19°C° 0 mm 3 mps 759 mmHg 48%
    12:00 +19°C° 0 mm 3 mps 759 mmHg 46%
    13:00 +19°C° 0.1 mm 3 mps 759 mmHg 50%
    14:00 +19°C° 0.1 mm 4 mps 759 mmHg 53%
    15:00 +18°C° 0.1 mm 4 mps 759 mmHg 57%
    16:00 +18°C° 0.1 mm 4 mps 759 mmHg 59%
    17:00 +18°C° 0.1 mm 3 mps 759 mmHg 60%
    18:00 +17°C° 0.1 mm 3 mps 759 mmHg 62%
    19:00 +16°C° 0 mm 3 mps 760 mmHg 66%
    20:00 +15°C° 0 mm 2 mps 760 mmHg 70%
    21:00 +14°C° 0 mm 2 mps 761 mmHg 74%
    22:00 +13°C° 0 mm 1 mps 761 mmHg 76%
    23:00 +13°C° 0 mm 1 mps 760 mmHg 78%

    8 June, Monday

    Time Temperature Precipitation Wind Pressure Humidity
    00:00 +11°C° 0 mm 0 mps 760 mmHg 80%
    01:00 +11°C° 0 mm 0 mps 760 mmHg 80%
    02:00 +11°C° 0 mm 0 mps 760 mmHg 80%
    03:00 +11°C° 0 mm 0 mps 760 mmHg 80%
    04:00 +12°C° 0 mm 0 mps 760 mmHg 78%
    05:00 +13°C° 0 mm 1 mps 760 mmHg 76%
    06:00 +14°C° 0 mm 1 mps 761 mmHg 75%
    07:00 +16°C° 0 mm 1 mps 761 mmHg 68%
    08:00 +19°C° 0 mm 1 mps 761 mmHg 61%
    09:00 +20°C° 0 mm 1 mps 761 mmHg 54%
    10:00 +20°C° 0.2 mm 2 mps 761 mmHg 54%
    11:00 +20°C° 0.2 mm 2 mps 761 mmHg 53%
    12:00 +21°C° 0.2 mm 3 mps 761 mmHg 53%
    13:00 +21°C° 0.2 mm 3 mps 761 mmHg 53%
    14:00 +21°C° 0.2 mm 3 mps 761 mmHg 52%
    15:00 +21°C° 0.2 mm 4 mps 761 mmHg 52%
    16:00 +20°C° 0 mm 4 mps 761 mmHg 55%
    17:00 +20°C° 0 mm 4 mps 761 mmHg 58%
    18:00 +19°C° 0 mm 4 mps 761 mmHg 61%
    19:00 +17°C° 0 mm 3 mps 761 mmHg 68%
    20:00 +16°C° 0 mm 3 mps 762 mmHg 76%
    21:00 +14°C° 0 mm 2 mps 762 mmHg 83%
    22:00 +14°C° 0 mm 2 mps 762 mmHg 85%
    23:00 +14°C° 0 mm 1 mps 762 mmHg 87%

    9 June, Tuesday

    Time Temperature Precipitation Wind Pressure Humidity
    00:00 +13°C° 0 mm 1 mps 762 mmHg 89%
    01:00 +13°C° 0 mm 1 mps 762 mmHg 90%
    02:00 +13°C° 0 mm 1 mps 762 mmHg 90%
    03:00 +13°C° 0 mm 1 mps 762 mmHg 90%
    04:00 +14°C° 0 mm 1 mps 762 mmHg 87%
    05:00 +15°C° 0 mm 1 mps 763 mmHg 84%
    06:00 +15°C° 0 mm 1 mps 763 mmHg 81%
    07:00 +18°C° 0.2 mm 1 mps 763 mmHg 76%
    08:00 +18°C° 0.2 mm 2 mps 763 mmHg 71%
    09:00 +20°C° 0.2 mm 2 mps 763 mmHg 66%
    10:00 +21°C° 0.4 mm 2 mps 763 mmHg 63%
    11:00 +21°C° 0.4 mm 2 mps 763 mmHg 61%
    12:00 +22°C° 0.4 mm 3 mps 763 mmHg 58%
    13:00 +22°C° 0.1 mm 3 mps 763 mmHg 55%
    14:00 +22°C° 0.1 mm 3 mps 763 mmHg 52%
    15:00 +23°C° 0.1 mm 4 mps 763 mmHg 50%
    16:00 +22°C° 0 mm 4 mps 763 mmHg 51%
    17:00 +21°C° 0 mm 4 mps 763 mmHg 53%
    18:00 +21°C° 0 mm 4 mps 763 mmHg 55%
    19:00 +19°C° 0 mm 3 mps 763 mmHg 61%
    20:00 +17°C° 0 mm 3 mps 764 mmHg 67%
    21:00 +15°C° 0 mm 2 mps 764 mmHg 73%
    22:00 +15°C° 0 mm 2 mps 764 mmHg 77%
    23:00 +14°C° 0 mm 2 mps 764 mmHg 80%
    Show more